This is the latest recevied weather packets stored in our database for station/object WY7EM. If no packets are shown the sender has not sent any weather packets the latest 10 day(s).
| Time | Temp. | Humidity | Pressure | Rain* | Wind** | Luminosity | Snow |
|---|---|---|---|---|---|---|---|
| 1777555722 | 12.22° C | 29% | 1015.2 hPa | 0 mm | - | 40 W/m² | - |
| 1777555418 | 12.22° C | 30% | 1015.2 hPa | 0 mm | - | 40 W/m² | - |
| 1777555115 | 11.67° C | 30% | 1015.2 hPa | 0 mm | - | 41 W/m² | - |
| 1777554812 | 12.22° C | 31% | 1015.2 hPa | 0 mm | - | 37 W/m² | - |
| 1777554509 | 11.67° C | 30% | 1015.2 hPa | 0 mm | - | 33 W/m² | - |
| 1777554206 | 11.67° C | 31% | 1015.2 hPa | 0 mm | - | 29 W/m² | - |
| 1777553903 | 11.67° C | 31% | 1014.9 hPa | 0 mm | - | 24 W/m² | - |
| 1777553599 | 11.11° C | 31% | 1015.1 hPa | 0 mm | - | 17 W/m² | - |
| 1777553296 | 11.11° C | 31% | 1014.9 hPa | 0 mm | - | 12 W/m² | - |
| 1777552992 | 11.67° C | 30% | 1014.9 hPa | 0 mm | - | 9 W/m² | - |
| 1777552691 | 12.22° C | 28% | 1015.1 hPa | 0 mm | - | 6 W/m² | - |
| 1777552388 | 11.67° C | 29% | 1014.8 hPa | 0 mm | - | 3 W/m² | - |
| 1777552084 | 11.67° C | 29% | 1014.9 hPa | 0 mm | - | 2 W/m² | - |
| 1777551782 | 11.67° C | 29% | 1015.2 hPa | 0 mm | - | 1 W/m² | - |
| 1777551479 | 11.67° C | 30% | 1014.9 hPa | 0 mm | - | 0 W/m² | - |
| 1777551176 | 12.22° C | 29% | 1014.9 hPa | 0 mm | - | 0 W/m² | - |
| 1777550873 | 12.22° C | 29% | 1014.8 hPa | 0 mm | - | 0 W/m² | - |
| 1777550569 | 12.22° C | 29% | 1014.8 hPa | 0 mm | - | 0 W/m² | - |
| 1777550265 | 12.22° C | 29% | 1014.8 hPa | 0 mm | - | 0 W/m² | - |
| 1777549962 | 11.67° C | 29% | 1014.7 hPa | 0 mm | - | 0 W/m² | - |
| 1777549658 | 12.22° C | 29% | 1014.8 hPa | 0 mm | - | 0 W/m² | - |
| 1777549353 | 12.22° C | 29% | 1014.7 hPa | 0 mm | - | 0 W/m² | - |
| 1777549052 | 12.22° C | 29% | 1014.8 hPa | 0 mm | - | 0 W/m² | - |
| 1777548747 | 11.67° C | 30% | 1014.7 hPa | 0 mm | - | 0 W/m² | - |
| 1777548445 | 12.22° C | 30% | 1014.9 hPa | 0 mm | - | 0 W/m² | - |
* Rain latest hour (hover to see other rain measurements)
** Current wind speed in m/s (hover to see current wind gust speed)